Time,TemperatureF,DewpointF,PressureIn,WindDirection,WindDirectionDegrees,WindSpeedMPH,WindSpeedGustMPH,Humidity,HourlyPrecipIn,Conditions,Clouds,dailyrainin,SoftwareType,DateUTC
2013-01-21 00:03:00,58.1,14.8,30.08,NNW,339,0.0,1.0,18,0.00,,,0.00,WeatherCatV1.10B1784,2013-01-21 08:03:00,
2013-01-21 00:08:00,58.0,14.8,30.08,NNW,339,0.0,0.0,18,0.00,,,0.00,WeatherCatV1.10B1784,2013-01-21 08:08:00,
2013-01-21 00:13:00,57.6,16.8,30.08,NNW,339,0.0,1.0,20,0.00,,,0.00,WeatherCatV1.10B1784,2013-01-21 08:13:00,
2013-01-21 00:18:00,57.3,17.7,30.07,NNW,339,0.0,0.0,21,0.00,,,0.00,WeatherCatV1.10B1784,2013-01-21 08:18:00,
2013-01-21 00:23:00,57.1,17.5,30.07,NNW,339,0.0,0.0,21,0.00,,,0.00,WeatherCatV1.10B1784,2013-01-21 08:23:00,
2013-01-21 00:28:00,56.9,15.1,30.07,NNW,328,0.0,1.0,19,0.00,,,0.00,WeatherCatV1.10B1784,2013-01-21 08:28:00,
2013-01-21 00:33:00,56.8,12.5,30.07,NNW,332,2.0,2.0,17,0.00,,,0.00,WeatherCatV1.10B1784,2013-01-21 08:33:00,
2013-01-21 00:38:00,57.1,11.4,30.07,NNW,338,2.0,4.0,16,0.00,,,0.00,WeatherCatV1.10B1784,2013-01-21 08:38:00,
2013-01-21 00:43:00,57.8,11.9,30.07,NNW,345,2.0,7.0,16,0.00,,,0.00,WeatherCatV1.10B1784,2013-01-21 08:43:00,
2013-01-21 00:48:00,58.8,11.3,30.05,NNW,333,4.0,5.0,15,0.00,,,0.00,WeatherCatV1.10B1784,2013-01-21 08:48:00,
2013-01-21 00:53:00,59.0,11.4,30.05,NNW,335,4.0,5.0,15,0.00,,,0.00,WeatherCatV1.10B1784,2013-01-21 08:53:00,
2013-01-21 00:58:00,59.1,11.5,30.05,NNW,337,4.0,6.0,15,0.00,,,0.00,WeatherCatV1.10B1784,2013-01-21 08:58:00,
2013-01-21 01:03:00,59.0,12.9,30.05,NNW,341,4.0,5.0,16,0.00,,,0.00,WeatherCatV1.10B1784,2013-01-21 09:03:00,
2013-01-21 01:08:00,59.0,12.9,30.05,NW,323,5.0,6.0,16,0.00,,,0.00,WeatherCatV1.10B1784,2013-01-21 09:08:00,
2013-01-21 01:13:00,59.1,13.0,30.05,NNW,330,4.0,7.0,16,0.00,,,0.00,WeatherCatV1.10B1784,2013-01-21 09:13:00,
2013-01-21 01:18:00,59.2,13.1,30.05,NNW,343,3.0,4.0,16,0.00,,,0.00,WeatherCatV1.10B1784,2013-01-21 09:18:00,
2013-01-21 01:23:00,59.1,13.0,30.05,NNW,327,2.0,4.0,16,0.00,,,0.00,WeatherCatV1.10B1784,2013-01-21 09:23:00,
2013-01-21 01:28:00,59.1,13.0,30.05,NNW,329,4.0,5.0,16,0.00,,,0.00,WeatherCatV1.10B1784,2013-01-21 09:28:00,
2013-01-21 01:33:00,59.2,13.1,30.05,NNW,336,1.0,5.0,16,0.00,,,0.00,WeatherCatV1.10B1784,2013-01-21 09:33:00,
2013-01-21 01:38:00,59.1,13.0,30.05,NNW,339,3.0,4.0,16,0.00,,,0.00,WeatherCatV1.10B1784,2013-01-21 09:38:00,
2013-01-21 01:43:00,59.2,11.6,30.05,NNW,341,2.0,3.0,15,0.00,,,0.00,WeatherCatV1.10B1784,2013-01-21 09:43:00,
2013-01-21 01:48:00,59.2,11.6,30.05,NNW,335,0.0,1.0,15,0.00,,,0.00,WeatherCatV1.10B1784,2013-01-21 09:48:00,
2013-01-21 01:53:00,59.0,11.4,30.05,NNW,335,0.0,1.0,15,0.00,,,0.00,WeatherCatV1.10B1784,2013-01-21 09:53:00,
2013-01-21 01:58:00,58.6,9.6,30.05,NNW,332,0.0,1.0,14,0.00,,,0.00,WeatherCatV1.10B1784,2013-01-21 09:58:00,
2013-01-21 02:03:00,58.5,9.5,30.04,WSW,246,0.0,0.0,14,0.00,,,0.00,WeatherCatV1.10B1784,2013-01-21 10:03:00,
2013-01-21 02:08:00,58.4,12.4,30.04,NW,324,0.0,1.0,16,0.00,,,0.00,WeatherCatV1.10B1784,2013-01-21 10:08:00,
2013-01-21 02:13:00,58.7,9.7,30.04,NNW,339,2.0,5.0,14,0.00,,,0.00,WeatherCatV1.10B1784,2013-01-21 10:13:00,
2013-01-21 02:18:00,59.6,10.4,30.03,NNW,328,2.0,5.0,14,0.00,,,0.00,WeatherCatV1.10B1784,2013-01-21 10:18:00,
2013-01-21 02:23:00,60.2,9.2,30.03,NNW,330,4.0,6.0,13,0.00,,,0.00,WeatherCatV1.10B1784,2013-01-21 10:23:00,
2013-01-21 02:28:00,60.4,9.4,30.03,NNW,347,2.0,3.0,13,0.00,,,0.00,WeatherCatV1.10B1784,2013-01-21 10:28:00,
2013-01-21 02:33:00,60.4,7.6,30.03,NNW,341,3.0,7.0,12,0.00,,,0.00,WeatherCatV1.10B1784,2013-01-21 10:33:00,
2013-01-21 02:38:00,60.7,9.6,30.03,NE,52,0.0,6.0,13,0.00,,,0.00,WeatherCatV1.10B1784,2013-01-21 10:38:00,
2013-01-21 02:43:00,60.6,11.2,30.03,NNW,343,0.0,1.0,14,0.00,,,0.00,WeatherCatV1.10B1784,2013-01-21 10:43:00,
2013-01-21 02:48:00,60.3,10.9,30.03,NNE,12,2.0,3.0,14,0.00,,,0.00,WeatherCatV1.10B1784,2013-01-21 10:48:00,
2013-01-21 02:53:00,60.0,10.7,30.03,North,352,0.0,0.0,14,0.00,,,0.00,WeatherCatV1.10B1784,2013-01-21 10:53:00,
2013-01-21 02:58:00,59.6,10.4,30.03,NNW,343,0.0,0.0,14,0.00,,,0.00,WeatherCatV1.10B1784,2013-01-21 10:58:00,
2013-01-21 03:03:00,59.2,10.1,30.03,NNW,346,1.0,3.0,14,0.00,,,0.00,WeatherCatV1.10B1784,2013-01-21 11:03:00,
2013-01-21 03:08:00,59.0,9.9,30.03,East,101,0.0,0.0,14,0.00,,,0.00,WeatherCatV1.10B1784,2013-01-21 11:08:00,
2013-01-21 03:13:00,58.8,11.3,30.03,South,171,0.0,3.0,15,0.00,,,0.00,WeatherCatV1.10B1784,2013-01-21 11:13:00,
2013-01-21 03:18:00,58.6,11.1,30.03,SSW,196,0.0,0.0,15,0.00,,,0.00,WeatherCatV1.10B1784,2013-01-21 11:18:00,
2013-01-21 03:23:00,58.4,12.4,30.03,South,173,0.0,1.0,16,0.00,,,0.00,WeatherCatV1.10B1784,2013-01-21 11:23:00,
2013-01-21 03:28:00,58.2,13.6,30.03,South,177,0.0,0.0,17,0.00,,,0.00,WeatherCatV1.10B1784,2013-01-21 11:28:00,
2013-01-21 03:33:00,58.2,14.9,30.02,South,170,0.0,1.0,18,0.00,,,0.00,WeatherCatV1.10B1784,2013-01-21 11:33:00,
2013-01-21 03:38:00,58.2,14.9,30.02,South,170,0.0,0.0,18,0.00,,,0.00,WeatherCatV1.10B1784,2013-01-21 11:38:00,
2013-01-21 03:43:00,58.0,12.1,30.02,South,185,0.0,0.0,16,0.00,,,0.00,WeatherCatV1.10B1784,2013-01-21 11:43:00,
2013-01-21 03:48:00,57.7,8.9,30.01,NNW,347,0.0,0.0,14,0.00,,,0.00,WeatherCatV1.10B1784,2013-01-21 11:48:00,
2013-01-21 03:53:00,57.6,8.8,30.01,NNW,346,0.0,0.0,14,0.00,,,0.00,WeatherCatV1.10B1784,2013-01-21 11:53:00,
2013-01-21 03:58:00,57.7,8.9,30.01,NNW,345,0.0,3.0,14,0.00,,,0.00,WeatherCatV1.10B1784,2013-01-21 11:58:00,
2013-01-21 04:03:00,57.8,13.3,30.01,NNW,327,1.0,3.0,17,0.00,,,0.00,WeatherCatV1.10B1784,2013-01-21 12:03:00,
2013-01-21 04:08:00,57.7,14.5,30.01,NNW,339,1.0,1.0,18,0.00,,,0.00,WeatherCatV1.10B1784,2013-01-21 12:08:00,
2013-01-21 04:13:00,57.4,14.3,30.01,NW,316,0.0,0.0,18,0.00,,,0.00,WeatherCatV1.10B1784,2013-01-21 12:13:00,
2013-01-21 04:18:00,57.3,14.2,30.01,WSW,240,0.0,0.0,18,0.00,,,0.00,WeatherCatV1.10B1784,2013-01-21 12:18:00,
2013-01-21 04:23:00,57.1,12.7,30.01,WSW,242,0.0,0.0,17,0.00,,,0.00,WeatherCatV1.10B1784,2013-01-21 12:23:00,
2013-01-21 04:28:00,57.0,13.9,30.01,WNW,302,0.0,0.0,18,0.00,,,0.00,WeatherCatV1.10B1784,2013-01-21 12:28:00,
2013-01-21 04:33:00,56.7,13.7,30.01,NW,312,0.0,0.0,18,0.00,,,0.00,WeatherCatV1.10B1784,2013-01-21 12:33:00,
2013-01-21 04:38:00,56.4,14.7,30.01,NNW,331,1.0,1.0,19,0.00,,,0.00,WeatherCatV1.10B1784,2013-01-21 12:38:00,
2013-01-21 04:43:00,56.0,14.3,30.01,NNW,330,0.0,1.0,19,0.00,,,0.00,WeatherCatV1.10B1784,2013-01-21 12:43:00,
2013-01-21 04:48:00,55.7,12.9,30.01,NNW,327,0.0,1.0,18,0.00,,,0.00,WeatherCatV1.10B1784,2013-01-21 12:48:00,
2013-01-21 04:53:00,55.5,12.7,30.01,NNW,329,0.0,0.0,18,0.00,,,0.00,WeatherCatV1.10B1784,2013-01-21 12:53:00,
2013-01-21 04:58:00,55.5,10.1,30.01,NW,318,0.0,1.0,16,0.00,,,0.00,WeatherCatV1.10B1784,2013-01-21 12:58:00,
2013-01-21 05:03:00,55.7,11.6,30.00,NW,323,0.0,0.0,17,0.00,,,0.00,WeatherCatV1.10B1784,2013-01-21 13:03:00,
2013-01-21 05:08:00,55.8,14.2,30.00,NNW,330,1.0,1.0,19,0.00,,,0.00,WeatherCatV1.10B1784,2013-01-21 13:08:00,
2013-01-21 05:13:00,55.7,10.2,30.00,NNW,330,0.0,1.0,16,0.00,,,0.00,WeatherCatV1.10B1784,2013-01-21 13:13:00,
2013-01-21 05:18:00,55.7,10.2,30.00,NNW,333,0.0,0.0,16,0.00,,,0.00,WeatherCatV1.10B1784,2013-01-21 13:18:00,
2013-01-21 05:23:00,55.8,10.3,30.00,NNW,341,0.0,0.0,16,0.00,,,0.00,WeatherCatV1.10B1784,2013-01-21 13:23:00,
2013-01-21 05:28:00,55.9,11.7,30.00,NNW,329,0.0,2.0,17,0.00,,,0.00,WeatherCatV1.10B1784,2013-01-21 13:28:00,
2013-01-21 05:33:00,56.0,9.0,30.00,SW,225,0.0,1.0,15,0.00,,,0.00,WeatherCatV1.10B1784,2013-01-21 13:33:00,
2013-01-21 05:38:00,56.2,9.2,30.00,SW,225,0.0,0.0,15,0.00,,,0.00,WeatherCatV1.10B1784,2013-01-21 13:38:00,
2013-01-21 05:43:00,56.4,7.8,30.00,SW,223,0.0,0.0,14,0.00,,,0.00,WeatherCatV1.10B1784,2013-01-21 13:43:00,
2013-01-21 05:48:00,56.4,9.3,30.00,NNW,339,0.0,2.0,15,0.00,,,0.00,WeatherCatV1.10B1784,2013-01-21 13:48:00,
2013-01-21 05:53:00,56.4,7.8,30.00,NNW,339,0.0,0.0,14,0.00,,,0.00,WeatherCatV1.10B1784,2013-01-21 13:53:00,
2013-01-21 05:58:00,56.3,9.3,30.00,NW,324,0.0,1.0,15,0.00,,,0.00,WeatherCatV1.10B1784,2013-01-21 13:58:00,
2013-01-21 06:03:00,56.2,9.2,30.00,NNW,333,0.0,0.0,15,0.00,,,0.00,WeatherCatV1.10B1784,2013-01-21 14:03:00,
2013-01-21 06:08:00,56.2,9.2,30.00,NNW,329,0.0,0.0,15,0.00,,,0.00,WeatherCatV1.10B1784,2013-01-21 14:08:00,
2013-01-21 06:13:00,56.2,7.7,30.00,SSE,160,0.0,2.0,14,0.00,,,0.00,WeatherCatV1.10B1784,2013-01-21 14:13:00,
2013-01-21 06:18:00,56.3,10.7,30.00,NW,325,0.0,1.0,16,0.00,,,0.00,WeatherCatV1.10B1784,2013-01-21 14:18:00,
2013-01-21 06:23:00,56.3,6.1,30.00,NNW,332,0.0,1.0,13,0.00,,,0.00,WeatherCatV1.10B1784,2013-01-21 14:23:00,
2013-01-21 06:28:00,56.6,4.6,30.00,NW,316,0.0,0.0,12,0.00,,,0.00,WeatherCatV1.10B1784,2013-01-21 14:28:00,
2013-01-21 06:33:00,56.8,6.5,30.00,WNW,286,0.0,0.0,13,0.00,,,0.00,WeatherCatV1.10B1784,2013-01-21 14:33:00,
2013-01-21 06:38:00,57.0,4.9,30.00,SSE,165,0.0,2.0,12,0.00,,,0.00,WeatherCatV1.10B1784,2013-01-21 14:38:00,
2013-01-21 06:43:00,57.1,5.0,30.00,SSE,166,0.0,1.0,12,0.00,,,0.00,WeatherCatV1.10B1784,2013-01-21 14:43:00,
2013-01-21 06:48:00,57.1,6.7,30.00,NNW,331,0.0,1.0,13,0.00,,,0.00,WeatherCatV1.10B1784,2013-01-21 14:48:00,
2013-01-21 06:53:00,56.9,6.6,30.00,NW,318,0.0,1.0,13,0.00,,,0.00,WeatherCatV1.10B1784,2013-01-21 14:53:00,
2013-01-21 06:58:00,56.8,4.8,30.00,NW,316,0.0,0.0,12,0.00,,,0.00,WeatherCatV1.10B1784,2013-01-21 14:58:00,
2013-01-21 07:03:00,56.7,4.7,30.01,NW,323,0.0,0.0,12,0.00,,,0.00,WeatherCatV1.10B1784,2013-01-21 15:03:00,
2013-01-21 07:08:00,56.6,4.6,30.01,NW,324,0.0,0.0,12,0.00,,,0.00,WeatherCatV1.10B1784,2013-01-21 15:08:00,
2013-01-21 07:13:00,56.6,4.6,30.01,NW,324,0.0,0.0,12,0.00,,,0.00,WeatherCatV1.10B1784,2013-01-21 15:13:00,
2013-01-21 07:18:00,56.5,4.5,30.01,NW,322,0.0,1.0,12,0.00,,,0.00,WeatherCatV1.10B1784,2013-01-21 15:18:00,
2013-01-21 07:23:00,56.5,4.5,30.01,NW,322,0.0,0.0,12,0.00,,,0.00,WeatherCatV1.10B1784,2013-01-21 15:23:00,
2013-01-21 07:28:00,56.5,4.5,30.01,NW,324,0.0,1.0,12,0.00,,,0.00,WeatherCatV1.10B1784,2013-01-21 15:28:00,
2013-01-21 07:33:00,56.4,4.4,30.02,NNW,327,0.0,1.0,12,0.00,,,0.00,WeatherCatV1.10B1784,2013-01-21 15:33:00,
2013-01-21 07:38:00,56.5,6.3,30.02,NNW,327,0.0,0.0,13,0.00,,,0.00,WeatherCatV1.10B1784,2013-01-21 15:38:00,
2013-01-21 07:43:00,56.6,8.0,30.02,NW,324,0.0,0.0,14,0.00,,,0.00,WeatherCatV1.10B1784,2013-01-21 15:43:00,
2013-01-21 07:48:00,56.8,8.1,30.02,NW,325,0.0,1.0,14,0.00,,,0.00,WeatherCatV1.10B1784,2013-01-21 15:48:00,
2013-01-21 07:53:00,56.8,8.1,30.02,NW,324,0.0,1.0,14,0.00,,,0.00,WeatherCatV1.10B1784,2013-01-21 15:53:00,
2013-01-21 07:58:00,57.0,9.8,30.02,NNW,336,0.0,0.0,15,0.00,,,0.00,WeatherCatV1.10B1784,2013-01-21 15:58:00,
2013-01-21 08:03:00,57.1,9.9,30.03,NNW,335,0.0,0.0,15,0.00,,,0.00,WeatherCatV1.10B1784,2013-01-21 16:03:00,
2013-01-21 08:08:00,57.2,12.8,30.03,NNW,330,0.0,1.0,17,0.00,,,0.00,WeatherCatV1.10B1784,2013-01-21 16:08:00,
2013-01-21 08:13:00,57.3,11.5,30.03,NNW,330,0.0,0.0,16,0.00,,,0.00,WeatherCatV1.10B1784,2013-01-21 16:13:00,
2013-01-21 08:18:00,57.5,10.2,30.03,NNW,330,0.0,0.0,15,0.00,,,0.00,WeatherCatV1.10B1784,2013-01-21 16:18:00,
2013-01-21 08:23:00,57.7,10.4,30.03,NNW,330,0.0,0.0,15,0.00,,,0.00,WeatherCatV1.10B1784,2013-01-21 16:23:00,
2013-01-21 08:28:00,58.1,13.5,30.03,SW,223,0.0,0.0,17,0.00,,,0.00,WeatherCatV1.10B1784,2013-01-21 16:28:00,
2013-01-21 08:33:00,58.6,12.6,30.03,SSW,199,0.0,0.0,16,0.00,,,0.00,WeatherCatV1.10B1784,2013-01-21 16:33:00,
2013-01-21 08:38:00,59.2,14.4,30.03,South,185,0.0,0.0,17,0.00,,,0.00,WeatherCatV1.10B1784,2013-01-21 16:38:00,
2013-01-21 08:43:00,60.0,15.1,30.03,South,182,0.0,1.0,17,0.00,,,0.00,WeatherCatV1.10B1784,2013-01-21 16:43:00,
2013-01-21 08:48:00,60.7,15.6,30.04,SSE,161,0.0,0.0,17,0.00,,,0.00,WeatherCatV1.10B1784,2013-01-21 16:48:00,
2013-01-21 08:53:00,61.3,14.7,30.04,South,183,0.0,1.0,16,0.00,,,0.00,WeatherCatV1.10B1784,2013-01-21 16:53:00,
2013-01-21 08:58:00,61.6,17.7,30.04,South,186,0.0,0.0,18,0.00,,,0.00,WeatherCatV1.10B1784,2013-01-21 16:58:00,
2013-01-21 09:03:00,61.7,15.1,30.05,SSE,154,0.0,0.0,16,0.00,,,0.00,WeatherCatV1.10B1784,2013-01-21 17:03:00,
2013-01-21 09:08:00,61.9,15.2,30.05,SSE,161,2.0,2.0,16,0.00,,,0.00,WeatherCatV1.10B1784,2013-01-21 17:08:00,
2013-01-21 09:13:00,62.2,16.9,30.05,South,169,0.0,1.0,17,0.00,,,0.00,WeatherCatV1.10B1784,2013-01-21 17:13:00,
2013-01-21 09:18:00,62.5,15.7,30.05,South,169,0.0,0.0,16,0.00,,,0.00,WeatherCatV1.10B1784,2013-01-21 17:18:00,
2013-01-21 09:23:00,62.8,18.7,30.05,South,169,0.0,0.0,18,0.00,,,0.00,WeatherCatV1.10B1784,2013-01-21 17:23:00,
2013-01-21 09:28:00,63.5,19.2,30.05,SSE,166,1.0,1.0,18,0.00,,,0.00,WeatherCatV1.10B1784,2013-01-21 17:28:00,
2013-01-21 09:33:00,64.7,22.7,30.06,SSE,152,0.0,1.0,20,0.00,,,0.00,WeatherCatV1.10B1784,2013-01-21 17:33:00,
2013-01-21 09:38:00,66.2,23.9,30.06,SSE,154,0.0,0.0,20,0.00,,,0.00,WeatherCatV1.10B1784,2013-01-21 17:38:00,
2013-01-21 09:43:00,67.1,22.2,30.06,SSE,159,0.0,0.0,18,0.00,,,0.00,WeatherCatV1.10B1784,2013-01-21 17:43:00,
2013-01-21 09:48:00,67.8,20.0,30.07,SSE,160,0.0,0.0,16,0.00,,,0.00,WeatherCatV1.10B1784,2013-01-21 17:48:00,
2013-01-21 09:53:00,68.4,17.4,30.07,South,175,0.0,3.0,14,0.00,,,0.00,WeatherCatV1.10B1784,2013-01-21 17:53:00,
2013-01-21 09:58:00,68.7,14.1,30.07,South,175,0.0,0.0,12,0.00,,,0.00,WeatherCatV1.10B1784,2013-01-21 17:58:00,
2013-01-21 10:03:00,69.1,21.0,30.07,South,173,0.0,0.0,16,0.00,,,0.00,WeatherCatV1.10B1784,2013-01-21 18:03:00,
2013-01-21 10:08:00,69.5,19.8,30.07,South,169,0.0,0.0,15,0.00,,,0.00,WeatherCatV1.10B1784,2013-01-21 18:08:00,
2013-01-21 10:13:00,70.0,18.6,30.07,South,179,0.0,0.0,14,0.00,,,0.00,WeatherCatV1.10B1784,2013-01-21 18:13:00,
2013-01-21 10:18:00,70.2,20.4,30.08,SE,128,0.0,4.0,15,0.00,,,0.00,WeatherCatV1.10B1784,2013-01-21 18:18:00,
2013-01-21 10:23:00,70.5,17.3,30.08,SSE,164,0.0,3.0,13,0.00,,,0.00,WeatherCatV1.10B1784,2013-01-21 18:23:00,
2013-01-21 10:28:00,70.8,23.8,30.08,SE,144,0.0,0.0,17,0.00,,,0.00,WeatherCatV1.10B1784,2013-01-21 18:28:00,
2013-01-21 10:33:00,71.0,22.6,30.08,South,169,0.0,3.0,16,0.00,,,0.00,WeatherCatV1.10B1784,2013-01-21 18:33:00,
2013-01-21 10:38:00,71.5,24.4,30.08,SSE,158,2.0,2.0,17,0.00,,,0.00,WeatherCatV1.10B1784,2013-01-21 18:38:00,
2013-01-21 10:43:00,71.9,16.5,30.08,SSE,162,1.0,2.0,12,0.00,,,0.00,WeatherCatV1.10B1784,2013-01-21 18:43:00,
2013-01-21 10:48:00,72.6,23.8,30.08,SSE,158,1.0,1.0,16,0.00,,,0.00,WeatherCatV1.10B1784,2013-01-21 18:48:00,
2013-01-21 10:53:00,73.1,21.1,30.08,SSE,156,1.0,2.0,14,0.00,,,0.00,WeatherCatV1.10B1784,2013-01-21 18:53:00,
2013-01-21 10:58:00,73.2,22.8,30.08,SSE,151,0.0,1.0,15,0.00,,,0.00,WeatherCatV1.10B1784,2013-01-21 18:58:00,
2013-01-21 11:03:00,73.0,19.3,30.08,South,176,0.0,2.0,13,0.00,,,0.00,WeatherCatV1.10B1784,2013-01-21 19:03:00,
2013-01-21 11:08:00,73.0,22.6,30.08,SE,146,0.0,2.0,15,0.00,,,0.00,WeatherCatV1.10B1784,2013-01-21 19:08:00,
2013-01-21 11:13:00,72.4,22.1,30.08,SSE,160,1.0,1.0,15,0.00,,,0.00,WeatherCatV1.10B1784,2013-01-21 19:13:00,
2013-01-21 11:18:00,72.5,20.6,30.08,SSE,152,0.0,2.0,14,0.00,,,0.00,WeatherCatV1.10B1784,2013-01-21 19:18:00,
2013-01-21 11:23:00,72.6,17.1,30.08,South,171,1.0,3.0,12,0.00,,,0.00,WeatherCatV1.10B1784,2013-01-21 19:23:00,
2013-01-21 11:28:00,72.3,22.1,30.08,SSE,147,0.0,2.0,15,0.00,,,0.00,WeatherCatV1.10B1784,2013-01-21 19:28:00,
2013-01-21 11:33:00,72.4,26.5,30.08,SSE,160,0.0,0.0,18,0.00,,,0.00,WeatherCatV1.10B1784,2013-01-21 19:33:00,
2013-01-21 11:38:00,72.4,22.1,30.08,SSE,161,0.0,3.0,15,0.00,,,0.00,WeatherCatV1.10B1784,2013-01-21 19:38:00,
2013-01-21 11:43:00,72.2,25.0,30.08,SSE,150,0.0,1.0,17,0.00,,,0.00,WeatherCatV1.10B1784,2013-01-21 19:43:00,
2013-01-21 11:48:00,71.5,21.4,30.07,SE,133,0.0,0.0,15,0.00,,,0.00,WeatherCatV1.10B1784,2013-01-21 19:48:00,
2013-01-21 11:53:00,71.0,25.4,30.07,SE,144,0.0,0.0,18,0.00,,,0.00,WeatherCatV1.10B1784,2013-01-21 19:53:00,
2013-01-21 11:58:00,71.0,22.6,30.07,SSE,156,3.0,3.0,16,0.00,,,0.00,WeatherCatV1.10B1784,2013-01-21 19:58:00,
2013-01-21 12:03:00,70.8,20.9,30.06,South,178,0.0,2.0,15,0.00,,,0.00,WeatherCatV1.10B1784,2013-01-21 20:03:00,
2013-01-21 12:08:00,71.0,26.7,30.06,South,183,0.0,0.0,19,0.00,,,0.00,WeatherCatV1.10B1784,2013-01-21 20:08:00,
2013-01-21 12:13:00,70.8,23.8,30.06,South,177,0.0,0.0,17,0.00,,,0.00,WeatherCatV1.10B1784,2013-01-21 20:13:00,
2013-01-21 12:18:00,70.3,20.5,30.05,South,178,0.0,1.0,15,0.00,,,0.00,WeatherCatV1.10B1784,2013-01-21 20:18:00,
2013-01-21 12:23:00,69.9,18.5,30.05,SSE,167,0.0,1.0,14,0.00,,,0.00,WeatherCatV1.10B1784,2013-01-21 20:23:00,
2013-01-21 12:28:00,69.4,21.3,30.05,SSE,167,0.0,1.0,16,0.00,,,0.00,WeatherCatV1.10B1784,2013-01-21 20:28:00,
2013-01-21 12:33:00,69.4,18.1,30.05,SSE,156,0.0,1.0,14,0.00,,,0.00,WeatherCatV1.10B1784,2013-01-21 20:33:00,
2013-01-21 12:38:00,69.2,19.6,30.05,SSE,154,0.0,0.0,15,0.00,,,0.00,WeatherCatV1.10B1784,2013-01-21 20:38:00,
2013-01-21 12:43:00,69.5,27.9,30.05,SSE,166,3.0,3.0,21,0.00,,,0.00,WeatherCatV1.10B1784,2013-01-21 20:43:00,
2013-01-21 12:48:00,69.5,21.3,30.05,SSE,154,1.0,2.0,16,0.00,,,0.00,WeatherCatV1.10B1784,2013-01-21 20:48:00,
2013-01-21 12:53:00,69.7,30.2,30.05,SSE,149,0.0,0.0,23,0.00,,,0.00,WeatherCatV1.10B1784,2013-01-21 20:53:00,
2013-01-21 12:58:00,70.2,27.2,30.05,SE,141,0.0,0.0,20,0.00,,,0.00,WeatherCatV1.10B1784,2013-01-21 20:58:00,
2013-01-21 13:03:00,70.4,27.4,30.05,SSE,149,0.0,1.0,20,0.00,,,0.00,WeatherCatV1.10B1784,2013-01-21 21:03:00,
2013-01-21 13:08:00,70.4,26.2,30.05,SSE,160,0.0,0.0,19,0.00,,,0.00,WeatherCatV1.10B1784,2013-01-21 21:08:00,
2013-01-21 13:13:00,70.2,26.0,30.05,SSE,157,0.0,1.0,19,0.00,,,0.00,WeatherCatV1.10B1784,2013-01-21 21:13:00,
2013-01-21 13:18:00,69.8,24.4,30.04,SSE,167,0.0,1.0,18,0.00,,,0.00,WeatherCatV1.10B1784,2013-01-21 21:18:00,
2013-01-21 13:23:00,69.6,29.1,30.04,SSE,167,0.0,1.0,22,0.00,,,0.00,WeatherCatV1.10B1784,2013-01-21 21:23:00,
2013-01-21 13:28:00,69.7,26.8,30.04,SSE,167,0.0,0.0,20,0.00,,,0.00,WeatherCatV1.10B1784,2013-01-21 21:28:00,
2013-01-21 13:33:00,69.9,29.3,30.04,SSE,167,0.0,0.0,22,0.00,,,0.00,WeatherCatV1.10B1784,2013-01-21 21:33:00,
2013-01-21 13:38:00,69.8,25.7,30.04,South,183,0.0,2.0,19,0.00,,,0.00,WeatherCatV1.10B1784,2013-01-21 21:38:00,
2013-01-21 13:43:00,69.7,25.6,30.04,SSE,152,0.0,0.0,19,0.00,,,0.00,WeatherCatV1.10B1784,2013-01-21 21:43:00,
2013-01-21 13:48:00,69.7,22.9,30.04,West,273,0.0,4.0,17,0.00,,,0.00,WeatherCatV1.10B1784,2013-01-21 21:48:00,
2013-01-21 13:53:00,69.7,25.6,30.04,SE,136,0.0,0.0,19,0.00,,,0.00,WeatherCatV1.10B1784,2013-01-21 21:53:00,
2013-01-21 13:58:00,69.9,25.8,30.04,SSE,155,0.0,2.0,19,0.00,,,0.00,WeatherCatV1.10B1784,2013-01-21 21:58:00,
2013-01-21 14:03:00,69.9,30.4,30.03,NE,52,0.0,1.0,23,0.00,,,0.00,WeatherCatV1.10B1784,2013-01-21 22:03:00,
2013-01-21 14:08:00,69.9,28.2,30.03,WSW,237,0.0,1.0,21,0.00,,,0.00,WeatherCatV1.10B1784,2013-01-21 22:08:00,
2013-01-21 14:13:00,69.8,31.4,30.03,SSE,149,1.0,3.0,24,0.00,,,0.00,WeatherCatV1.10B1784,2013-01-21 22:13:00,
2013-01-21 14:18:00,69.7,29.2,30.03,South,172,0.0,2.0,22,0.00,,,0.00,WeatherCatV1.10B1784,2013-01-21 22:18:00,
2013-01-21 14:23:00,69.5,29.0,30.03,SSE,167,0.0,1.0,22,0.00,,,0.00,WeatherCatV1.10B1784,2013-01-21 22:23:00,
2013-01-21 14:28:00,69.3,28.8,30.03,SE,134,0.0,0.0,22,0.00,,,0.00,WeatherCatV1.10B1784,2013-01-21 22:28:00,
2013-01-21 14:33:00,69.0,28.6,30.04,SSW,200,0.0,1.0,22,0.00,,,0.00,WeatherCatV1.10B1784,2013-01-21 22:33:00,
2013-01-21 14:38:00,68.7,28.3,30.04,South,187,0.0,1.0,22,0.00,,,0.00,WeatherCatV1.10B1784,2013-01-21 22:38:00,
2013-01-21 14:44:00,68.5,29.2,30.04,South,172,0.0,2.0,23,0.00,,,0.00,WeatherCatV1.10B1784,2013-01-21 22:44:00,
2013-01-21 14:49:00,68.3,29.1,30.03,SSE,148,0.0,2.0,23,0.00,,,0.00,WeatherCatV1.10B1784,2013-01-21 22:49:00,
2013-01-21 14:54:00,68.1,28.9,30.03,SSE,148,0.0,0.0,23,0.00,,,0.00,WeatherCatV1.10B1784,2013-01-21 22:54:00,
2013-01-21 14:59:00,67.8,28.6,30.03,SSE,148,0.0,0.0,23,0.00,,,0.00,WeatherCatV1.10B1784,2013-01-21 22:59:00,
2013-01-21 15:04:00,67.6,29.5,30.03,SSE,148,0.0,0.0,24,0.00,,,0.00,WeatherCatV1.10B1784,2013-01-21 23:04:00,
2013-01-21 15:09:00,67.4,29.4,30.03,SSE,148,0.0,0.0,24,0.00,,,0.00,WeatherCatV1.10B1784,2013-01-21 23:09:00,
2013-01-21 15:14:00,67.2,33.0,30.03,SSE,148,0.0,0.0,28,0.00,,,0.00,WeatherCatV1.10B1784,2013-01-21 23:14:00,
2013-01-21 15:19:00,67.0,31.0,30.02,SSE,148,0.0,0.0,26,0.00,,,0.00,WeatherCatV1.10B1784,2013-01-21 23:19:00,
2013-01-21 15:24:00,66.9,29.9,30.02,SSE,148,0.0,0.0,25,0.00,,,0.00,WeatherCatV1.10B1784,2013-01-21 23:24:00,
2013-01-21 15:29:00,66.8,30.8,30.02,SSE,148,0.0,0.0,26,0.00,,,0.00,WeatherCatV1.10B1784,2013-01-21 23:29:00,
2013-01-21 15:34:00,66.8,30.8,30.02,SSE,148,0.0,0.0,26,0.00,,,0.00,WeatherCatV1.10B1784,2013-01-21 23:34:00,
2013-01-21 15:39:00,66.7,29.8,30.02,SSE,150,0.0,0.0,25,0.00,,,0.00,WeatherCatV1.10B1784,2013-01-21 23:39:00,
2013-01-21 15:44:00,66.7,30.7,30.02,SSE,150,0.0,0.0,26,0.00,,,0.00,WeatherCatV1.10B1784,2013-01-21 23:44:00,
2013-01-21 15:49:00,66.8,28.8,30.02,SSE,150,0.0,0.0,24,0.00,,,0.00,WeatherCatV1.10B1784,2013-01-21 23:49:00,
2013-01-21 15:54:00,66.8,25.6,30.02,SSE,150,0.0,1.0,21,0.00,,,0.00,WeatherCatV1.10B1784,2013-01-21 23:54:00,
2013-01-21 15:59:00,66.8,24.4,30.02,SSE,150,0.0,0.0,20,0.00,,,0.00,WeatherCatV1.10B1784,2013-01-21 23:59:00,
2013-01-21 16:04:00,66.8,24.4,30.01,SSE,150,0.0,0.0,20,0.00,,,0.00,WeatherCatV1.10B1784,2013-01-22 00:04:00,
2013-01-21 16:09:00,66.7,24.4,30.01,SSE,150,0.0,0.0,20,0.00,,,0.00,WeatherCatV1.10B1784,2013-01-22 00:09:00,
2013-01-21 16:14:00,66.6,25.4,30.01,SSE,150,0.0,0.0,21,0.00,,,0.00,WeatherCatV1.10B1784,2013-01-22 00:14:00,
2013-01-21 16:19:00,66.5,24.2,30.01,SSE,150,0.0,0.0,20,0.00,,,0.00,WeatherCatV1.10B1784,2013-01-22 00:19:00,
2013-01-21 16:24:00,66.3,21.5,30.01,SSE,150,0.0,0.0,18,0.00,,,0.00,WeatherCatV1.10B1784,2013-01-22 00:24:00,
2013-01-21 16:29:00,66.1,20.0,30.01,SSE,150,0.0,0.0,17,0.00,,,0.00,WeatherCatV1.10B1784,2013-01-22 00:29:00,
2013-01-21 16:34:00,65.9,18.5,30.01,SSE,150,0.0,0.0,16,0.00,,,0.00,WeatherCatV1.10B1784,2013-01-22 00:34:00,
2013-01-21 16:39:00,65.7,16.8,30.01,SSE,150,0.0,0.0,15,0.00,,,0.00,WeatherCatV1.10B1784,2013-01-22 00:39:00,
2013-01-21 16:44:00,65.5,16.6,30.01,SSE,150,0.0,0.0,15,0.00,,,0.00,WeatherCatV1.10B1784,2013-01-22 00:44:00,
2013-01-21 16:49:00,65.2,16.4,30.01,SSE,150,0.0,0.0,15,0.00,,,0.00,WeatherCatV1.10B1784,2013-01-22 00:49:00,
2013-01-21 16:54:00,65.0,16.2,30.01,SSE,150,0.0,0.0,15,0.00,,,0.00,WeatherCatV1.10B1784,2013-01-22 00:54:00,
2013-01-21 16:59:00,64.9,16.2,30.01,SSE,150,0.0,0.0,15,0.00,,,0.00,WeatherCatV1.10B1784,2013-01-22 00:59:00,
2013-01-21 17:04:00,64.7,14.4,30.01,SSE,150,0.0,0.0,14,0.00,,,0.00,WeatherCatV1.10B1784,2013-01-22 01:04:00,
2013-01-21 17:09:00,64.5,14.3,30.01,SSE,150,0.0,0.0,14,0.00,,,0.00,WeatherCatV1.10B1784,2013-01-22 01:09:00,
2013-01-21 17:14:00,64.3,14.1,30.01,SSE,150,0.0,0.0,14,0.00,,,0.00,WeatherCatV1.10B1784,2013-01-22 01:14:00,
2013-01-21 17:19:00,64.1,13.9,30.01,SSE,150,0.0,0.0,14,0.00,,,0.00,WeatherCatV1.10B1784,2013-01-22 01:19:00,
2013-01-21 17:24:00,63.8,13.7,30.01,SSE,150,0.0,0.0,14,0.00,,,0.00,WeatherCatV1.10B1784,2013-01-22 01:24:00,
2013-01-21 17:29:00,63.5,17.9,30.01,NNW,331,2.0,4.0,17,0.00,,,0.00,WeatherCatV1.10B1784,2013-01-22 01:29:00,
2013-01-21 17:34:00,63.0,21.3,30.01,NNW,334,3.0,3.0,20,0.00,,,0.00,WeatherCatV1.10B1784,2013-01-22 01:34:00,
2013-01-21 17:39:00,62.7,23.3,30.01,NNW,333,2.0,4.0,22,0.00,,,0.00,WeatherCatV1.10B1784,2013-01-22 01:39:00,
2013-01-21 17:44:00,62.5,24.2,30.01,NNW,339,3.0,4.0,23,0.00,,,0.00,WeatherCatV1.10B1784,2013-01-22 01:44:00,
2013-01-21 17:49:00,62.5,23.1,30.01,NNW,335,4.0,4.0,22,0.00,,,0.00,WeatherCatV1.10B1784,2013-01-22 01:49:00,
2013-01-21 17:54:00,62.6,22.1,30.01,NNW,337,2.0,2.0,21,0.00,,,0.00,WeatherCatV1.10B1784,2013-01-22 01:54:00,
2013-01-21 17:59:00,62.8,22.3,30.01,NNW,345,0.0,1.0,21,0.00,,,0.00,WeatherCatV1.10B1784,2013-01-22 01:59:00,
2013-01-21 18:04:00,62.7,18.6,30.01,NNW,345,0.0,1.0,18,0.00,,,0.00,WeatherCatV1.10B1784,2013-01-22 02:04:00,
2013-01-21 18:09:00,62.5,12.7,30.01,SW,222,0.0,0.0,14,0.00,,,0.00,WeatherCatV1.10B1784,2013-01-22 02:09:00,
2013-01-21 18:14:00,62.3,14.1,30.01,NNW,340,0.0,0.0,15,0.00,,,0.00,WeatherCatV1.10B1784,2013-01-22 02:14:00,
2013-01-21 18:19:00,62.3,10.8,30.01,SW,225,0.0,0.0,13,0.00,,,0.00,WeatherCatV1.10B1784,2013-01-22 02:19:00,
2013-01-21 18:24:00,62.3,12.5,30.01,WSW,254,0.0,0.0,14,0.00,,,0.00,WeatherCatV1.10B1784,2013-01-22 02:24:00,
2013-01-21 18:29:00,62.2,12.4,30.01,South,189,0.0,1.0,14,0.00,,,0.00,WeatherCatV1.10B1784,2013-01-22 02:29:00,
2013-01-21 18:34:00,62.3,14.1,30.01,South,172,0.0,1.0,15,0.00,,,0.00,WeatherCatV1.10B1784,2013-01-22 02:34:00,
2013-01-21 18:39:00,62.4,12.6,30.01,South,184,0.0,4.0,14,0.00,,,0.00,WeatherCatV1.10B1784,2013-01-22 02:39:00,
2013-01-21 18:44:00,62.4,14.2,30.01,NNW,343,0.0,0.0,15,0.00,,,0.00,WeatherCatV1.10B1784,2013-01-22 02:44:00,
2013-01-21 18:49:00,62.5,15.7,30.02,NNW,343,1.0,2.0,16,0.00,,,0.00,WeatherCatV1.10B1784,2013-01-22 02:49:00,
2013-01-21 18:54:00,62.6,15.8,30.02,NNW,339,1.0,2.0,16,0.00,,,0.00,WeatherCatV1.10B1784,2013-01-22 02:54:00,
2013-01-21 18:59:00,62.7,15.9,30.02,NNW,340,2.0,2.0,16,0.00,,,0.00,WeatherCatV1.10B1784,2013-01-22 02:59:00,
2013-01-21 19:04:00,62.8,16.0,30.02,NNW,339,2.0,2.0,16,0.00,,,0.00,WeatherCatV1.10B1784,2013-01-22 03:04:00,
2013-01-21 19:09:00,62.7,15.9,30.02,NNW,343,1.0,2.0,16,0.00,,,0.00,WeatherCatV1.10B1784,2013-01-22 03:09:00,
2013-01-21 19:14:00,62.3,16.9,30.02,NNW,335,1.0,2.0,17,0.00,,,0.00,WeatherCatV1.10B1784,2013-01-22 03:14:00,
2013-01-21 19:19:00,61.9,16.6,30.03,NNW,338,2.0,2.0,17,0.00,,,0.00,WeatherCatV1.10B1784,2013-01-22 03:19:00,
2013-01-21 19:24:00,61.8,16.5,30.03,NNW,335,0.0,1.0,17,0.00,,,0.00,WeatherCatV1.10B1784,2013-01-22 03:24:00,
2013-01-21 19:29:00,61.7,13.6,30.03,NNW,329,1.0,1.0,15,0.00,,,0.00,WeatherCatV1.10B1784,2013-01-22 03:29:00,
2013-01-21 19:34:00,61.7,12.0,30.03,NNW,335,0.0,0.0,14,0.00,,,0.00,WeatherCatV1.10B1784,2013-01-22 03:34:00,
2013-01-21 19:39:00,61.8,10.5,30.03,NNW,335,0.0,0.0,13,0.00,,,0.00,WeatherCatV1.10B1784,2013-01-22 03:39:00,
2013-01-21 19:44:00,62.0,13.8,30.03,North,353,0.0,1.0,15,0.00,,,0.00,WeatherCatV1.10B1784,2013-01-22 03:44:00,
2013-01-21 19:49:00,62.1,12.4,30.03,SSE,154,0.0,1.0,14,0.00,,,0.00,WeatherCatV1.10B1784,2013-01-22 03:49:00,
2013-01-21 19:54:00,62.3,10.8,30.03,SSE,152,0.0,0.0,13,0.00,,,0.00,WeatherCatV1.10B1784,2013-01-22 03:54:00,
2013-01-21 19:59:00,62.6,11.1,30.03,SSE,152,0.0,0.0,13,0.00,,,0.00,WeatherCatV1.10B1784,2013-01-22 03:59:00,
2013-01-21 20:04:00,62.7,11.2,30.03,SSE,152,0.0,0.0,13,0.00,,,0.00,WeatherCatV1.10B1784,2013-01-22 04:04:00,
2013-01-21 20:09:00,62.7,12.8,30.03,SSE,152,0.0,0.0,14,0.00,,,0.00,WeatherCatV1.10B1784,2013-01-22 04:09:00,
2013-01-21 20:14:00,62.5,12.7,30.03,SSE,152,0.0,0.0,14,0.00,,,0.00,WeatherCatV1.10B1784,2013-01-22 04:14:00,
2013-01-21 20:19:00,62.2,14.0,30.04,SSE,152,0.0,0.0,15,0.00,,,0.00,WeatherCatV1.10B1784,2013-01-22 04:19:00,
2013-01-21 20:24:00,62.0,12.3,30.04,SSE,152,0.0,0.0,14,0.00,,,0.00,WeatherCatV1.10B1784,2013-01-22 04:24:00,
2013-01-21 20:29:00,61.7,13.6,30.04,SSE,152,0.0,0.0,15,0.00,,,0.00,WeatherCatV1.10B1784,2013-01-22 04:29:00,
2013-01-21 20:34:00,61.5,13.4,30.05,SSE,152,0.0,0.0,15,0.00,,,0.00,WeatherCatV1.10B1784,2013-01-22 04:34:00,
2013-01-21 20:39:00,61.2,13.2,30.05,SSE,152,0.0,0.0,15,0.00,,,0.00,WeatherCatV1.10B1784,2013-01-22 04:39:00,
2013-01-21 20:44:00,60.9,14.4,30.05,SSE,152,0.0,0.0,16,0.00,,,0.00,WeatherCatV1.10B1784,2013-01-22 04:44:00,
2013-01-21 20:49:00,60.8,14.3,30.05,SSE,152,0.0,0.0,16,0.00,,,0.00,WeatherCatV1.10B1784,2013-01-22 04:49:00,
2013-01-21 20:54:00,60.9,14.4,30.05,SSE,152,0.0,0.0,16,0.00,,,0.00,WeatherCatV1.10B1784,2013-01-22 04:54:00,
2013-01-21 20:59:00,61.0,14.5,30.05,SSE,152,0.0,0.0,16,0.00,,,0.00,WeatherCatV1.10B1784,2013-01-22 04:59:00,
2013-01-21 21:00:00,61.0,14.5,30.05,SSE,152,0.0,0.0,16,0.00,,,0.00,WeatherCatV1.10B1784,2013-01-22 05:00:00,
2013-01-21 21:05:00,61.0,13.0,30.05,SSE,152,0.0,0.0,15,0.00,,,0.00,WeatherCatV1.10B1784,2013-01-22 05:05:00,
2013-01-21 21:10:00,60.9,14.4,30.05,SSE,152,0.0,0.0,16,0.00,,,0.00,WeatherCatV1.10B1784,2013-01-22 05:10:00,
2013-01-21 21:15:00,60.7,15.6,30.06,SSE,152,0.0,0.0,17,0.00,,,0.00,WeatherCatV1.10B1784,2013-01-22 05:15:00,
2013-01-21 21:20:00,60.3,15.3,30.06,SE,144,1.0,2.0,17,0.00,,,0.00,WeatherCatV1.10B1784,2013-01-22 05:20:00,
2013-01-21 21:25:00,60.1,16.5,30.06,North,10,0.0,0.0,18,0.00,,,0.00,WeatherCatV1.10B1784,2013-01-22 05:25:00,
2013-01-21 21:30:00,59.8,18.7,30.06,NNW,345,1.0,1.0,20,0.00,,,0.00,WeatherCatV1.10B1784,2013-01-22 05:30:00,
2013-01-21 21:35:00,59.7,18.6,30.06,NNW,345,0.0,0.0,20,0.00,,,0.00,WeatherCatV1.10B1784,2013-01-22 05:35:00,
2013-01-21 21:40:00,59.7,19.7,30.06,NNW,345,0.0,0.0,21,0.00,,,0.00,WeatherCatV1.10B1784,2013-01-22 05:40:00,
2013-01-21 21:45:00,59.7,18.6,30.06,NNW,345,0.0,0.0,20,0.00,,,0.00,WeatherCatV1.10B1784,2013-01-22 05:45:00,
2013-01-21 21:50:00,59.8,18.7,30.06,South,170,0.0,2.0,20,0.00,,,0.00,WeatherCatV1.10B1784,2013-01-22 05:50:00,
2013-01-21 21:55:00,60.2,20.1,30.06,South,171,0.0,1.0,21,0.00,,,0.00,WeatherCatV1.10B1784,2013-01-22 05:55:00,
2013-01-21 22:00:00,60.2,19.0,30.06,South,171,0.0,0.0,20,0.00,,,0.00,WeatherCatV1.10B1784,2013-01-22 06:00:00,
2013-01-21 22:05:00,60.4,18.0,30.06,South,171,0.0,0.0,19,0.00,,,0.00,WeatherCatV1.10B1784,2013-01-22 06:05:00,
2013-01-21 22:10:00,60.5,16.8,30.06,South,171,0.0,1.0,18,0.00,,,0.00,WeatherCatV1.10B1784,2013-01-22 06:10:00,
2013-01-21 22:15:00,60.8,17.0,30.05,South,171,0.0,0.0,18,0.00,,,0.00,WeatherCatV1.10B1784,2013-01-22 06:15:00,
2013-01-21 22:20:00,60.8,18.3,30.05,SSE,164,0.0,1.0,19,0.00,,,0.00,WeatherCatV1.10B1784,2013-01-22 06:20:00,
2013-01-21 22:25:00,60.9,18.4,30.05,South,185,0.0,0.0,19,0.00,,,0.00,WeatherCatV1.10B1784,2013-01-22 06:25:00,
2013-01-21 22:30:00,60.7,18.2,30.04,NNW,331,0.0,0.0,19,0.00,,,0.00,WeatherCatV1.10B1784,2013-01-22 06:30:00,
2013-01-21 22:35:00,60.6,18.1,30.04,SSW,195,0.0,0.0,19,0.00,,,0.00,WeatherCatV1.10B1784,2013-01-22 06:35:00,
2013-01-21 22:40:00,60.4,18.0,30.04,WNW,301,0.0,0.0,19,0.00,,,0.00,WeatherCatV1.10B1784,2013-01-22 06:40:00,
2013-01-21 22:45:00,60.1,17.7,30.05,NW,318,0.0,2.0,19,0.00,,,0.00,WeatherCatV1.10B1784,2013-01-22 06:45:00,
2013-01-21 22:50:00,59.8,18.7,30.05,NNW,334,1.0,1.0,20,0.00,,,0.00,WeatherCatV1.10B1784,2013-01-22 06:50:00,
2013-01-21 22:55:00,59.6,18.5,30.05,NNW,331,0.0,2.0,20,0.00,,,0.00,WeatherCatV1.10B1784,2013-01-22 06:55:00,
2013-01-21 23:00:00,59.4,17.1,30.04,NNW,330,0.0,1.0,19,0.00,,,0.00,WeatherCatV1.10B1784,2013-01-22 07:00:00,
2013-01-21 23:05:00,59.3,17.1,30.04,NNW,331,0.0,1.0,19,0.00,,,0.00,WeatherCatV1.10B1784,2013-01-22 07:05:00,
2013-01-21 23:10:00,59.4,18.3,30.04,NNW,331,0.0,0.0,20,0.00,,,0.00,WeatherCatV1.10B1784,2013-01-22 07:10:00,
2013-01-21 23:15:00,59.6,18.5,30.04,NNW,331,0.0,0.0,20,0.00,,,0.00,WeatherCatV1.10B1784,2013-01-22 07:15:00,
2013-01-21 23:20:00,59.6,18.5,30.04,NNW,337,0.0,0.0,20,0.00,,,0.00,WeatherCatV1.10B1784,2013-01-22 07:20:00,
2013-01-21 23:25:00,59.6,18.5,30.04,NNW,337,0.0,0.0,20,0.00,,,0.00,WeatherCatV1.10B1784,2013-01-22 07:25:00,
2013-01-21 23:30:00,59.7,18.6,30.04,WSW,243,0.0,0.0,20,0.00,,,0.00,WeatherCatV1.10B1784,2013-01-22 07:30:00,
2013-01-21 23:35:00,59.9,17.6,30.04,WSW,242,0.0,0.0,19,0.00,,,0.00,WeatherCatV1.10B1784,2013-01-22 07:35:00,
2013-01-21 23:40:00,59.8,17.5,30.04,WSW,242,0.0,0.0,19,0.00,,,0.00,WeatherCatV1.10B1784,2013-01-22 07:40:00,
2013-01-21 23:45:00,59.8,17.5,30.03,WSW,242,0.0,0.0,19,0.00,,,0.00,WeatherCatV1.10B1784,2013-01-22 07:45:00,
2013-01-21 23:50:00,59.8,17.5,30.03,WSW,243,0.0,0.0,19,0.00,,,0.00,WeatherCatV1.10B1784,2013-01-22 07:50:00,
2013-01-21 23:55:00,59.6,17.3,30.03,WNW,284,0.0,0.0,19,0.00,,,0.00,WeatherCatV1.10B1784,2013-01-22 07:55:00,